Weather History for McGrath, AK

Change the Weather History Date:

Monday, March 25, 2013

  Actual Average Record
Temperature  
Mean Temperature -11 °F 15 °F  
Max Temperature 5 °F 28 °F 48 °F (1999)
Min Temperature -27 °F - -35 °F (1962)
Degree Days  
Heating Degree Days 76 50  
Month to date heating degree days 1417 1369  
Since 1 July heating degree days 11947 11607  
Cooling Degree Days 0    
Month to date cooling degree days 0  
Year to date cooling degree days 0  
Moisture  
Dew Point -20 °F    
Average Humidity 63    
Maximum Humidity 83    
Minimum Humidity 39    
Precipitation  
Precipitation T in 0.03 in 0.25 in (1991)
Month to date precipitation 0.49 0.68  
Year to date precipitation 3.66 2.71  
Snow  
Snow T in 0.30 in 4.40 in (2005)
Month to date snowfall 7.2 9.7  
Since 1 July snowfall 73.1 89.7  
Snow Depth 31.00 in    
Sea Level Pressure  
Sea Level Pressure 29.90 in    
Wind  
Wind Speed 4 mph (WNW)    
Max Wind Speed 15 mph    
Max Gust Speed 18 mph    
Visibility 9 miles    
Events Snow    
T = Trace of Precipitation, MM = Missing Value Source: NWS Daily Summary

Daily Weather History Graph

Daily Weather History Graph

Search for Another Location

Airport:

Trip Planner

Search our weather history database for the weather conditions in past years. The results will help you decide how hot, cold, wet, or windy it might be!

Date:

Astronomy

Mar. 25, 2013 Rise Set
Actual Time 8:04 AM AKDT 8:53 PM AKDT
Civil Twilight 7:18 AM AKDT 9:39 PM AKDT
Nautical Twilight 6:21 AM AKDT 10:37 PM AKDT
Astronomical Twilight 5:14 AM AKDT 11:45 PM AKDT
Moon 7:24 PM AKDT (3/25) 7:16 AM AKDT (3/25)
Length of Visible Light 14h 21m
Length of Day
12h 48m
Waxing Gibbous, 97% of the Moon is Illuminated
Mar 25
Waxing Gibbous
Mar 27
Full
Apr 2
Last Quarter
Apr 10
New
Apr 18
First Quarter

Hourly Weather History & Observations

Time (AKDT) Temp. Windchill Dew Point Humidity Pressure Visibility Wind Dir Wind Speed Gust Speed Precip Events Conditions
12:53 AM -18.9 °F - -24.0 °F 78% 29.92 in 10.0 mi Calm Calm - N/A   Clear
1:53 AM -22.0 °F -33.0 °F -27.0 °F 77% 29.92 in 10.0 mi West 3.5 mph - N/A   Clear
2:53 AM -23.1 °F - -27.9 °F 78% 29.91 in 10.0 mi Calm Calm - N/A   Scattered Clouds
3:53 AM -23.1 °F - -29.0 °F 74% 29.91 in 10.0 mi Calm Calm - N/A   Scattered Clouds
4:53 AM -23.1 °F - -27.9 °F 78% 29.89 in 10.0 mi Calm Calm - N/A   Scattered Clouds
5:53 AM -20.9 °F - -27.0 °F 73% 29.88 in 7.0 mi Calm Calm - N/A   Scattered Clouds
6:53 AM -24.0 °F - -29.0 °F 77% 29.88 in 10.0 mi Calm Calm - N/A   Scattered Clouds
7:53 AM -24.0 °F - -29.9 °F 74% 29.86 in 9.0 mi Calm Calm - 0.00 in   Scattered Clouds
8:00 AM -25.6 °F - -32.8 °F 69% 29.82 in 10.0 mi Calm Calm - N/A   Scattered Clouds
8:48 AM -25.6 °F - -32.8 °F 69% 29.82 in 7.0 mi Calm Calm - N/A   Overcast
8:53 AM -25.1 °F - -31.0 °F 74% 29.86 in 6.0 mi Calm Calm - N/A   Haze
9:00 AM -25.6 °F - -29.2 °F 83% 29.82 in 10.0 mi Calm Calm - N/A   Scattered Clouds
9:53 AM -18.9 °F - -24.0 °F 78% 29.86 in 10.0 mi Calm Calm - N/A   Scattered Clouds
10:53 AM -7.1 °F -18.1 °F -16.1 °F 65% 29.86 in 10.0 mi WNW 4.6 mph - N/A   Mostly Cloudy
11:53 AM -2.9 °F -16.5 °F -14.1 °F 59% 29.86 in 10.0 mi WNW 6.9 mph - N/A   Mostly Cloudy
12:53 PM -0.0 °F -11.6 °F -11.9 °F 57% 29.87 in 10.0 mi Variable 5.8 mph - N/A   Mostly Cloudy
1:53 PM 1.9 °F -10.6 °F -11.9 °F 52% 29.87 in 10.0 mi NW 6.9 mph - N/A   Mostly Cloudy
2:53 PM 1.9 °F -10.6 °F -11.9 °F 52% 29.88 in 10.0 mi North 6.9 mph - N/A   Mostly Cloudy
3:53 PM 3.9 °F - -9.0 °F 55% 29.89 in 5.0 mi Calm Calm - 0.00 in Snow Light Snow
4:53 PM 5.0 °F -4.1 °F -9.0 °F 52% 29.90 in 9.0 mi Variable 4.6 mph - 0.00 in   Overcast
5:53 PM 3.0 °F -13.3 °F -11.0 °F 52% 29.91 in 10.0 mi WNW 11.5 mph - 0.00 in   Overcast
6:53 PM 1.0 °F -12.9 °F -11.9 °F 55% 29.94 in 10.0 mi West 8.1 mph 17.3 mph N/A   Overcast
7:53 PM 1.0 °F -14.9 °F -13.0 °F 52% 29.95 in 10.0 mi West 10.4 mph - N/A   Overcast
8:53 PM -0.9 °F -12.7 °F -15.0 °F 52% 29.97 in 10.0 mi West 5.8 mph - N/A   Overcast
9:53 PM -4.0 °F -16.3 °F -15.0 °F 59% 29.98 in 10.0 mi West 5.8 mph - N/A   Mostly Cloudy
10:53 PM -4.0 °F -16.3 °F -16.1 °F 56% 29.98 in 10.0 mi West 5.8 mph - N/A   Overcast
11:53 PM -6.0 °F -16.9 °F -17.0 °F 59% 30.00 in 10.0 mi WSW 4.6 mph - N/A   Overcast